Hourly Data Report for September 07, 2017

All times are specified in Local Standard Time (LST). Add 1 hour to adjust for Daylight Saving Time where and when it is observed.

IQALUIT CLIMATE
NUNAVUT

63°44'50.000" N
68°32'40.000" W
33.50 m
2402592
71321
XFB

Download Data

Hourly Data (September 2017)
Hourly Data Report for September 7, 2017
Temp Definition
°C
Dew Point Temp Definition
°C
Rel Hum Definition
%
Wind Dir Definition
10's deg

Wind Spd Definition
km/h
Visibility Definition
km
Stn Press Definition
kPa
Hmdx Definition


Wind Chill Definition


Weather Definition


TIME
00:00 3.0 0.1 81 13 2   101.13     LegendNANA
01:00 2.9 -0.3 79 23 2   101.18     LegendNANA
02:00 1.9 0.2 89 19 4   101.22     LegendNANA
03:00 0.7 -0.4 93 35 3   101.27     LegendNANA
04:00 -0.3 -1.4 92 32 6   101.31   -2 LegendNANA
05:00 0.5 -0.5 93 34 8   101.34     LegendNANA
06:00 2.5 0.6 87 33 4   101.38     LegendNANA
07:00 3.5 0.6 82 33 4   101.43     LegendNANA
08:00 5.4 1.3 75 32 10   101.43     LegendNANA
09:00 6.7 0.8 66 32 17   101.44     LegendNANA
10:00 6.8 0.8 66 32 18   101.43     LegendNANA
11:00 7.0 1.2 66 32 17   101.43     LegendNANA
12:00 7.4 0.7 62 32 16   101.40     LegendNANA
13:00 8.0 0.1 57 30 7   101.41     LegendNANA
14:00 8.5 0.7 58 29 12   101.40     LegendNANA
15:00 8.1 0.7 60 29 9   101.39     LegendNANA
16:00 7.8 0.2 58 26 11   101.37     LegendNANA
17:00 7.0 1.8 69 24 7   101.35     LegendNANA
18:00 4.4 1.4 81 14 10   101.35     LegendNANA
19:00 3.9 1.5 84 14 11   101.35     LegendNANA
20:00 4.1 0.9 79 13 12   101.32     LegendNANA
21:00 4.0 1.0 81 14 13   101.31     LegendNANA
22:00 3.3 1.1 86 14 15   101.28     LegendNANA
23:00 3.0 0.5 84 13 17   101.28     LegendNANA

Notes on Data Quality.

Legend

  • E = Estimated
  • M = Missing
  • NA = Not Available
  • ‡ = Partner data that is not subject to review by the National Climate Archives
Date modified: